Location: Unspecified
(0.0000°N, 0.0000°E)
Time: 23:16:29
(UTC+02:00)

NOAA 12 - Visible Passes

Search period start: 22 May 2017 00:00
Search period end: 01 June 2017 00:00
Orbit: 796 x 815 km, 98.6° (Epoch: 21 May)

Date Brightness Start Highest point End Pass type
(mag) Time Alt. Az. Time Alt. Az. Time Alt. Az.
22 May 5.8 21:42:04 10° SSW 21:46:35 30° WSW 21:51:05 10° NW visible
23 May 4.5 21:16:31 10° S 21:21:40 60° WSW 21:26:48 10° NNW visible
24 May 4.0 20:51:33 10° SSE 20:56:45 68° ENE 21:01:55 10° N visible
25 May 4.8 20:27:10 10° SE 20:31:50 33° ENE 20:36:29 10° NNE visible
25 May 6.7 22:08:28 10° SW 22:11:20 15° WSW 22:14:13 10° WNW visible
26 May 5.8 21:41:56 10° SSW 21:46:26 30° WSW 21:50:57 10° NW visible
27 May 4.5 21:16:23 10° S 21:21:32 60° WSW 21:26:40 10° NNW visible
28 May 4.0 20:51:25 10° SSE 20:56:37 68° ENE 21:01:47 10° N visible
29 May 4.8 20:27:02 10° SE 20:31:42 33° ENE 20:36:21 10° NNE visible
29 May 6.7 22:08:20 10° SW 22:11:13 15° WSW 22:14:05 10° WNW visible
30 May 5.8 21:41:48 10° SSW 21:46:18 30° WSW 21:50:50 10° NW visible
31 May 4.5 21:16:15 10° S 21:21:23 60° WSW 21:26:32 10° NNW visible
